Time,TemperatureF,DewpointF,PressureIn,WindDirection,WindDirectionDegrees,WindSpeedMPH,WindSpeedGustMPH,Humidity,HourlyPrecipIn,Conditions,Clouds,dailyrainin,SoftwareType,DateUTC
2013-09-24 00:01:00,46.0,42.0,30.04,NW,324,0.0,0.0,86,0.00,,,0.00,VWS V14.01,2013-09-24 04:01:00,
2013-09-24 00:06:00,45.8,41.9,30.04,NW,325,0.0,0.0,86,0.00,,,0.00,VWS V14.01,2013-09-24 04:06:00,
2013-09-24 00:11:00,45.7,42.1,30.04,NW,325,0.0,0.0,87,0.00,,,0.00,VWS V14.01,2013-09-24 04:11:00,
2013-09-24 00:16:00,45.5,41.9,30.04,NW,325,0.0,0.0,87,0.00,,,0.00,VWS V14.01,2013-09-24 04:16:00,
2013-09-24 00:21:00,45.4,42.1,30.04,NW,325,0.0,0.0,88,0.00,,,0.00,VWS V14.01,2013-09-24 04:21:00,
2013-09-24 00:26:00,45.3,42.0,30.04,NW,324,0.0,0.0,88,0.00,,,0.00,VWS V14.01,2013-09-24 04:26:00,
2013-09-24 00:31:00,45.2,41.9,30.04,NW,324,0.0,0.0,88,0.00,,,0.00,VWS V14.01,2013-09-24 04:31:00,
2013-09-24 00:36:00,45.1,41.8,30.04,NW,324,0.0,0.0,88,0.00,,,0.00,VWS V14.01,2013-09-24 04:36:00,
2013-09-24 00:41:00,45.0,42.0,30.04,NW,324,0.0,0.0,89,0.00,,,0.00,VWS V14.01,2013-09-24 04:41:00,
2013-09-24 00:46:00,44.9,41.9,30.04,NW,324,0.0,0.0,89,0.00,,,0.00,VWS V14.01,2013-09-24 04:46:00,
2013-09-24 00:51:00,44.9,41.9,30.04,NW,324,0.0,0.0,89,0.00,,,0.00,VWS V14.01,2013-09-24 04:51:00,
2013-09-24 00:56:00,44.8,41.8,30.04,NW,324,0.0,0.0,89,0.00,,,0.00,VWS V14.01,2013-09-24 04:56:00,
2013-09-24 01:01:00,44.8,41.8,30.04,NW,324,0.0,0.0,89,0.00,,,0.00,VWS V14.01,2013-09-24 05:01:00,
2013-09-24 01:06:00,44.7,41.7,30.04,NW,324,0.0,1.0,89,0.00,,,0.00,VWS V14.01,2013-09-24 05:06:00,
2013-09-24 01:11:00,44.7,41.7,30.04,NNW,329,0.0,1.0,89,0.00,,,0.00,VWS V14.01,2013-09-24 05:11:00,
2013-09-24 01:16:00,44.6,41.8,30.04,NNW,329,0.0,0.0,90,0.00,,,0.00,VWS V14.01,2013-09-24 05:16:00,
2013-09-24 01:21:00,44.5,41.5,30.04,NNW,329,0.0,0.0,89,0.00,,,0.00,VWS V14.01,2013-09-24 05:21:00,
2013-09-24 01:26:00,44.5,41.5,30.04,NNW,329,0.0,0.0,89,0.00,,,0.00,VWS V14.01,2013-09-24 05:26:00,
2013-09-24 01:31:00,44.4,41.4,30.05,NNW,328,0.0,0.0,89,0.00,,,0.00,VWS V14.01,2013-09-24 05:31:00,
2013-09-24 01:36:00,44.3,41.6,30.05,NNW,328,0.0,0.0,90,0.00,,,0.00,VWS V14.01,2013-09-24 05:36:00,
2013-09-24 01:41:00,44.2,41.5,30.05,NNW,328,0.0,0.0,90,0.00,,,0.00,VWS V14.01,2013-09-24 05:41:00,
2013-09-24 01:46:00,44.1,41.4,30.05,NNW,328,0.0,0.0,90,0.00,,,0.00,VWS V14.01,2013-09-24 05:46:00,
2013-09-24 01:51:00,44.0,41.3,30.05,NNW,328,0.0,0.0,90,0.00,,,0.00,VWS V14.01,2013-09-24 05:51:00,
2013-09-24 01:56:00,44.0,41.3,30.05,NNW,328,0.0,0.0,90,0.00,,,0.00,VWS V14.01,2013-09-24 05:56:00,
2013-09-24 02:01:00,43.9,41.2,30.05,NNW,328,0.0,0.0,90,0.00,,,0.00,VWS V14.01,2013-09-24 06:01:00,
2013-09-24 02:06:00,43.8,41.1,30.05,NNW,328,0.0,0.0,90,0.00,,,0.00,VWS V14.01,2013-09-24 06:06:00,
2013-09-24 02:11:00,43.7,41.0,30.05,NNW,328,0.0,0.0,90,0.00,,,0.00,VWS V14.01,2013-09-24 06:11:00,
2013-09-24 02:16:00,43.6,40.9,30.04,NNW,328,0.0,0.0,90,0.00,,,0.00,VWS V14.01,2013-09-24 06:16:00,
2013-09-24 02:21:00,43.5,40.8,30.04,NNW,329,0.0,0.0,90,0.00,,,0.00,VWS V14.01,2013-09-24 06:21:00,
2013-09-24 02:26:00,43.4,40.7,30.04,NNW,328,0.0,0.0,90,0.00,,,0.00,VWS V14.01,2013-09-24 06:26:00,
2013-09-24 02:31:00,43.3,40.6,30.04,NNW,329,0.0,0.0,90,0.00,,,0.00,VWS V14.01,2013-09-24 06:31:00,
2013-09-24 02:36:00,43.2,40.5,30.04,NNW,328,0.0,0.0,90,0.00,,,0.00,VWS V14.01,2013-09-24 06:36:00,
2013-09-24 02:41:00,43.1,40.4,30.04,NNW,329,0.0,0.0,90,0.00,,,0.00,VWS V14.01,2013-09-24 06:41:00,
2013-09-24 02:46:00,43.1,40.4,30.04,NNW,328,0.0,0.0,90,0.00,,,0.00,VWS V14.01,2013-09-24 06:46:00,
2013-09-24 02:51:00,42.9,40.2,30.04,NNW,329,0.0,0.0,90,0.00,,,0.00,VWS V14.01,2013-09-24 06:51:00,
2013-09-24 02:56:00,42.9,40.2,30.04,NNW,328,0.0,0.0,90,0.00,,,0.00,VWS V14.01,2013-09-24 06:56:00,
2013-09-24 03:01:00,42.7,40.0,30.04,NNW,329,0.0,0.0,90,0.00,,,0.00,VWS V14.01,2013-09-24 07:01:00,
2013-09-24 03:07:00,42.7,40.0,30.04,NNW,329,0.0,0.0,90,0.00,,,0.00,VWS V14.01,2013-09-24 07:07:00,
2013-09-24 03:12:00,42.6,40.2,30.04,NNW,329,0.0,0.0,91,0.00,,,0.00,VWS V14.01,2013-09-24 07:12:00,
2013-09-24 03:17:00,42.4,39.7,30.04,NNW,329,0.0,0.0,90,0.00,,,0.00,VWS V14.01,2013-09-24 07:17:00,
2013-09-24 03:22:00,42.4,40.0,30.04,NNW,329,0.0,0.0,91,0.00,,,0.00,VWS V14.01,2013-09-24 07:22:00,
2013-09-24 03:27:00,42.3,39.9,30.04,NNW,328,0.0,0.0,91,0.00,,,0.00,VWS V14.01,2013-09-24 07:27:00,
2013-09-24 03:32:00,42.2,39.8,30.03,NNW,328,0.0,0.0,91,0.00,,,0.00,VWS V14.01,2013-09-24 07:32:00,
2013-09-24 03:37:00,42.2,39.8,30.03,NNW,329,0.0,0.0,91,0.00,,,0.00,VWS V14.01,2013-09-24 07:37:00,
2013-09-24 03:42:00,42.1,39.7,30.03,NNW,328,0.0,0.0,91,0.00,,,0.00,VWS V14.01,2013-09-24 07:42:00,
2013-09-24 03:47:00,42.0,39.6,30.04,NNW,329,0.0,0.0,91,0.00,,,0.00,VWS V14.01,2013-09-24 07:47:00,
2013-09-24 03:52:00,41.9,39.5,30.04,NNW,329,0.0,0.0,91,0.00,,,0.00,VWS V14.01,2013-09-24 07:52:00,
2013-09-24 03:57:00,41.9,39.5,30.04,NNW,328,0.0,0.0,91,0.00,,,0.00,VWS V14.01,2013-09-24 07:57:00,
2013-09-24 04:02:00,41.9,39.5,30.04,NNW,328,0.0,0.0,91,0.00,,,0.00,VWS V14.01,2013-09-24 08:02:00,
2013-09-24 04:07:00,41.9,39.8,30.04,NNW,328,0.0,0.0,92,0.00,,,0.00,VWS V14.01,2013-09-24 08:07:00,
2013-09-24 04:12:00,41.8,39.4,30.04,NNW,328,0.0,0.0,91,0.00,,,0.00,VWS V14.01,2013-09-24 08:12:00,
2013-09-24 04:17:00,41.8,39.7,30.04,NNW,328,0.0,0.0,92,0.00,,,0.00,VWS V14.01,2013-09-24 08:17:00,
2013-09-24 04:22:00,41.7,39.5,30.04,NNW,329,0.0,0.0,92,0.00,,,0.00,VWS V14.01,2013-09-24 08:22:00,
2013-09-24 04:27:00,41.6,39.2,30.04,NNW,328,0.0,0.0,91,0.00,,,0.00,VWS V14.01,2013-09-24 08:27:00,
2013-09-24 04:32:00,41.5,39.1,30.04,NNW,328,0.0,0.0,91,0.00,,,0.00,VWS V14.01,2013-09-24 08:32:00,
2013-09-24 04:37:00,41.4,39.2,30.04,NNW,329,0.0,0.0,92,0.00,,,0.00,VWS V14.01,2013-09-24 08:37:00,
2013-09-24 04:42:00,41.4,39.2,30.04,NNW,328,0.0,0.0,92,0.00,,,0.00,VWS V14.01,2013-09-24 08:42:00,
2013-09-24 04:47:00,41.3,39.2,30.03,NNW,328,0.0,0.0,92,0.00,,,0.00,VWS V14.01,2013-09-24 08:47:00,
2013-09-24 04:52:00,41.2,39.1,30.03,NNW,328,0.0,0.0,92,0.00,,,0.00,VWS V14.01,2013-09-24 08:52:00,
2013-09-24 04:57:00,41.1,38.7,30.03,NNW,329,0.0,0.0,91,0.00,,,0.00,VWS V14.01,2013-09-24 08:57:00,
2013-09-24 05:02:00,41.1,38.7,30.03,NNW,328,0.0,0.0,91,0.00,,,0.00,VWS V14.01,2013-09-24 09:02:00,
2013-09-24 05:07:00,41.0,38.6,30.03,NNW,328,0.0,0.0,91,0.00,,,0.00,VWS V14.01,2013-09-24 09:07:00,
2013-09-24 05:12:00,40.9,38.8,30.03,NNW,328,0.0,0.0,92,0.00,,,0.00,VWS V14.01,2013-09-24 09:12:00,
2013-09-24 05:17:00,40.8,38.7,30.03,NNW,328,0.0,0.0,92,0.00,,,0.00,VWS V14.01,2013-09-24 09:17:00,
2013-09-24 05:21:00,40.7,38.6,30.03,NNW,329,0.0,0.0,92,0.00,,,0.00,VWS V14.01,2013-09-24 09:21:00,
2013-09-24 05:26:00,40.6,38.5,30.03,NNW,328,0.0,0.0,92,0.00,,,0.00,VWS V14.01,2013-09-24 09:26:00,
2013-09-24 05:32:00,40.6,38.5,30.04,NNW,329,0.0,0.0,92,0.00,,,0.00,VWS V14.01,2013-09-24 09:32:00,
2013-09-24 05:37:00,40.5,38.4,30.04,NNW,329,0.0,0.0,92,0.00,,,0.00,VWS V14.01,2013-09-24 09:37:00,
2013-09-24 05:41:00,40.4,38.3,30.04,NNW,329,0.0,0.0,92,0.00,,,0.00,VWS V14.01,2013-09-24 09:41:00,
2013-09-24 05:46:00,40.4,38.3,30.04,NNW,328,0.0,0.0,92,0.00,,,0.00,VWS V14.01,2013-09-24 09:46:00,
2013-09-24 05:51:00,40.3,38.2,30.04,NNW,329,0.0,0.0,92,0.00,,,0.00,VWS V14.01,2013-09-24 09:51:00,
2013-09-24 05:56:00,40.3,38.2,30.04,NNW,328,0.0,0.0,92,0.00,,,0.00,VWS V14.01,2013-09-24 09:56:00,
2013-09-24 06:01:00,40.3,38.2,30.03,NNW,329,0.0,0.0,92,0.00,,,0.00,VWS V14.01,2013-09-24 10:01:00,
2013-09-24 06:06:00,40.2,38.1,30.03,NNW,329,0.0,0.0,92,0.00,,,0.00,VWS V14.01,2013-09-24 10:06:00,
2013-09-24 06:11:00,40.1,38.0,30.03,NNW,329,0.0,0.0,92,0.00,,,0.00,VWS V14.01,2013-09-24 10:11:00,
2013-09-24 06:16:00,40.0,37.9,30.03,NNW,329,0.0,0.0,92,0.00,,,0.00,VWS V14.01,2013-09-24 10:16:00,
2013-09-24 06:21:00,40.1,38.0,30.03,NNW,327,0.0,0.0,92,0.00,,,0.00,VWS V14.01,2013-09-24 10:21:00,
2013-09-24 06:26:00,40.2,38.3,30.03,NNW,327,1.0,2.0,93,0.00,,,0.00,VWS V14.01,2013-09-24 10:26:00,
2013-09-24 06:31:00,40.4,38.5,30.03,NNW,333,1.0,2.0,93,0.00,,,0.00,VWS V14.01,2013-09-24 10:31:00,
2013-09-24 06:36:00,40.6,38.7,30.03,NNW,333,0.0,2.0,93,0.00,,,0.00,VWS V14.01,2013-09-24 10:36:00,
2013-09-24 06:41:00,40.7,38.8,30.03,NNW,333,0.0,0.0,93,0.00,,,0.00,VWS V14.01,2013-09-24 10:41:00,
2013-09-24 06:46:00,40.7,38.8,30.03,NNW,333,0.0,0.0,93,0.00,,,0.00,VWS V14.01,2013-09-24 10:46:00,
2013-09-24 06:51:00,40.7,38.8,30.03,NNW,333,0.0,0.0,93,0.00,,,0.00,VWS V14.01,2013-09-24 10:51:00,
2013-09-24 06:56:00,40.7,38.8,30.03,NNW,332,0.0,0.0,93,0.00,,,0.00,VWS V14.01,2013-09-24 10:56:00,
2013-09-24 07:01:00,40.7,38.8,30.03,NNW,332,0.0,0.0,93,0.00,,,0.00,VWS V14.01,2013-09-24 11:01:00,
2013-09-24 07:06:00,40.7,38.8,30.03,NNW,332,0.0,0.0,93,0.00,,,0.00,VWS V14.01,2013-09-24 11:06:00,
2013-09-24 07:11:00,40.7,38.8,30.03,NNW,332,0.0,0.0,93,0.00,,,0.00,VWS V14.01,2013-09-24 11:11:00,
2013-09-24 07:16:00,40.7,38.8,30.03,NNW,332,0.0,0.0,93,0.00,,,0.00,VWS V14.01,2013-09-24 11:16:00,
2013-09-24 07:21:00,40.6,38.7,30.03,NNW,333,0.0,0.0,93,0.00,,,0.00,VWS V14.01,2013-09-24 11:21:00,
2013-09-24 07:26:00,40.6,38.7,30.03,West,281,0.0,1.0,93,0.00,,,0.00,VWS V14.01,2013-09-24 11:26:00,
2013-09-24 07:31:00,40.6,38.7,30.03,West,281,0.0,0.0,93,0.00,,,0.00,VWS V14.01,2013-09-24 11:31:00,
2013-09-24 07:36:00,40.6,38.7,30.03,West,281,0.0,0.0,93,0.00,,,0.00,VWS V14.01,2013-09-24 11:36:00,
2013-09-24 07:41:00,40.7,38.8,30.03,West,281,0.0,0.0,93,0.00,,,0.00,VWS V14.01,2013-09-24 11:41:00,
2013-09-24 07:46:00,40.8,38.9,30.03,WSW,241,0.0,2.0,93,0.00,,,0.00,VWS V14.01,2013-09-24 11:46:00,
2013-09-24 07:51:00,40.9,39.3,30.03,WSW,241,0.0,0.0,94,0.00,,,0.00,VWS V14.01,2013-09-24 11:51:00,
2013-09-24 07:56:00,41.1,39.5,30.03,WSW,241,0.0,1.0,94,0.00,,,0.00,VWS V14.01,2013-09-24 11:56:00,
2013-09-24 08:01:00,41.3,39.7,30.03,SSW,207,0.0,0.0,94,0.00,,,0.00,VWS V14.01,2013-09-24 12:01:00,
2013-09-24 08:06:00,41.8,40.2,30.03,North,360,1.0,4.0,94,0.00,,,0.00,VWS V14.01,2013-09-24 12:06:00,
2013-09-24 08:11:00,42.4,40.8,30.03,South,191,0.0,2.0,94,0.00,,,0.00,VWS V14.01,2013-09-24 12:11:00,
2013-09-24 08:16:00,42.9,41.3,30.03,West,268,2.0,4.0,94,0.00,,,0.00,VWS V14.01,2013-09-24 12:16:00,
2013-09-24 08:21:00,43.3,41.7,30.03,SW,221,0.0,2.0,94,0.00,,,0.00,VWS V14.01,2013-09-24 12:21:00,
2013-09-24 08:26:00,43.6,42.0,30.03,NNW,346,3.0,3.0,94,0.00,,,0.00,VWS V14.01,2013-09-24 12:26:00,
2013-09-24 08:31:00,44.0,42.4,30.03,ESE,111,1.0,1.0,94,0.00,,,0.00,VWS V14.01,2013-09-24 12:31:00,
2013-09-24 08:37:00,44.3,42.7,30.03,WSW,258,0.0,2.0,94,0.00,,,0.00,VWS V14.01,2013-09-24 12:37:00,
2013-09-24 08:42:00,44.7,43.1,30.03,West,265,0.0,2.0,94,0.00,,,0.00,VWS V14.01,2013-09-24 12:42:00,
2013-09-24 08:47:00,45.1,43.2,30.03,West,271,0.0,5.0,93,0.00,,,0.00,VWS V14.01,2013-09-24 12:47:00,
2013-09-24 08:52:00,45.5,43.6,30.03,East,100,6.0,6.0,93,0.00,,,0.00,VWS V14.01,2013-09-24 12:52:00,
2013-09-24 08:57:00,46.0,43.8,30.03,NNW,329,1.0,8.0,92,0.00,,,0.00,VWS V14.01,2013-09-24 12:57:00,
2013-09-24 09:02:00,46.5,44.0,30.03,WSW,251,1.0,1.0,91,0.00,,,0.00,VWS V14.01,2013-09-24 13:02:00,
2013-09-24 09:07:00,46.9,44.1,30.03,NNW,340,0.0,5.0,90,0.00,,,0.00,VWS V14.01,2013-09-24 13:07:00,
2013-09-24 09:12:00,47.3,44.2,30.03,North,355,7.0,7.0,89,0.00,,,0.00,VWS V14.01,2013-09-24 13:12:00,
2013-09-24 09:17:00,47.7,44.3,30.02,East,81,0.0,7.0,88,0.00,,,0.00,VWS V14.01,2013-09-24 13:17:00,
2013-09-24 09:22:00,48.1,44.7,30.02,West,274,1.0,4.0,88,0.00,,,0.00,VWS V14.01,2013-09-24 13:22:00,
2013-09-24 09:27:00,48.5,44.5,30.02,ESE,110,5.0,5.0,86,0.00,,,0.00,VWS V14.01,2013-09-24 13:27:00,
2013-09-24 09:32:00,48.9,44.6,30.02,ENE,57,0.0,0.0,85,0.00,,,0.00,VWS V14.01,2013-09-24 13:32:00,
2013-09-24 09:37:00,49.4,44.8,30.02,East,82,0.0,9.0,84,0.00,,,0.00,VWS V14.01,2013-09-24 13:37:00,
2013-09-24 09:42:00,49.8,44.8,30.02,SW,216,1.0,3.0,83,0.00,,,0.00,VWS V14.01,2013-09-24 13:42:00,
2013-09-24 09:46:00,50.3,45.3,30.02,WSW,242,1.0,7.0,83,0.00,,,0.00,VWS V14.01,2013-09-24 13:46:00,
2013-09-24 09:51:00,50.8,45.5,30.02,ENE,78,2.0,3.0,82,0.00,,,0.00,VWS V14.01,2013-09-24 13:51:00,
2013-09-24 09:56:00,51.2,45.6,30.02,ESE,122,2.0,4.0,81,0.00,,,0.00,VWS V14.01,2013-09-24 13:56:00,
2013-09-24 10:02:00,52.0,45.7,30.01,NNW,331,3.0,10.0,79,0.00,,,0.00,VWS V14.01,2013-09-24 14:02:00,
2013-09-24 10:07:00,52.8,46.1,30.01,East,86,2.0,10.0,78,0.00,,,0.00,VWS V14.01,2013-09-24 14:07:00,
2013-09-24 10:12:00,53.4,46.0,30.01,SE,126,3.0,3.0,76,0.00,,,0.00,VWS V14.01,2013-09-24 14:12:00,
2013-09-24 10:17:00,54.1,46.4,30.00,ESE,103,2.0,6.0,75,0.00,,,0.00,VWS V14.01,2013-09-24 14:17:00,
2013-09-24 10:22:00,54.8,46.0,30.00,NE,38,2.0,5.0,72,0.00,,,0.00,VWS V14.01,2013-09-24 14:22:00,
2013-09-24 10:27:00,55.5,47.0,30.00,SE,142,3.0,7.0,73,0.00,,,0.00,VWS V14.01,2013-09-24 14:27:00,
2013-09-24 10:32:00,56.1,46.8,30.00,East,89,1.0,3.0,71,0.00,,,0.00,VWS V14.01,2013-09-24 14:32:00,
2013-09-24 10:37:00,56.5,46.5,30.00,West,261,1.0,6.0,69,0.00,,,0.00,VWS V14.01,2013-09-24 14:37:00,
2013-09-24 10:42:00,56.9,46.8,30.00,SSE,150,0.0,3.0,69,0.00,,,0.00,VWS V14.01,2013-09-24 14:42:00,
2013-09-24 10:47:00,57.5,46.6,30.00,NE,37,0.0,8.0,67,0.00,,,0.00,VWS V14.01,2013-09-24 14:47:00,
2013-09-24 10:52:00,58.1,46.8,30.00,West,271,5.0,11.0,66,0.00,,,0.00,VWS V14.01,2013-09-24 14:52:00,
2013-09-24 10:57:00,58.4,46.3,30.00,South,191,1.0,11.0,64,0.00,,,0.00,VWS V14.01,2013-09-24 14:57:00,
2013-09-24 11:02:00,58.9,47.2,30.00,ESE,121,1.0,1.0,65,0.00,,,0.00,VWS V14.01,2013-09-24 15:02:00,
2013-09-24 11:07:00,59.0,46.0,30.00,NW,307,0.0,8.0,62,0.00,,,0.00,VWS V14.01,2013-09-24 15:07:00,
2013-09-24 11:12:00,59.4,46.4,30.00,WNW,292,1.0,2.0,62,0.00,,,0.00,VWS V14.01,2013-09-24 15:12:00,
2013-09-24 11:17:00,59.9,47.7,29.99,NNW,337,0.0,5.0,64,0.00,,,0.00,VWS V14.01,2013-09-24 15:17:00,
2013-09-24 11:22:00,60.2,47.2,29.99,NE,56,2.0,2.0,62,0.00,,,0.00,VWS V14.01,2013-09-24 15:22:00,
2013-09-24 11:27:00,60.6,47.5,29.99,WNW,290,9.0,9.0,62,0.00,,,0.00,VWS V14.01,2013-09-24 15:27:00,
2013-09-24 11:32:00,60.9,47.4,29.99,SW,233,0.0,1.0,61,0.00,,,0.00,VWS V14.01,2013-09-24 15:32:00,
2013-09-24 11:37:00,61.3,48.6,29.99,SW,234,0.0,2.0,63,0.00,,,0.00,VWS V14.01,2013-09-24 15:37:00,
2013-09-24 11:42:00,61.7,48.1,29.99,SSW,204,1.0,1.0,61,0.00,,,0.00,VWS V14.01,2013-09-24 15:42:00,
2013-09-24 11:47:00,62.0,47.5,29.98,NE,49,1.0,10.0,59,0.00,,,0.00,VWS V14.01,2013-09-24 15:47:00,
2013-09-24 11:52:00,62.3,48.2,29.98,East,88,0.0,1.0,60,0.00,,,0.00,VWS V14.01,2013-09-24 15:52:00,
2013-09-24 11:57:00,62.5,48.0,29.98,West,277,1.0,8.0,59,0.00,,,0.00,VWS V14.01,2013-09-24 15:57:00,
2013-09-24 12:02:00,62.7,47.7,29.98,WSW,243,0.0,1.0,58,0.00,,,0.00,VWS V14.01,2013-09-24 16:02:00,
2013-09-24 12:07:00,62.9,47.5,29.98,West,281,3.0,10.0,57,0.00,,,0.00,VWS V14.01,2013-09-24 16:07:00,
2013-09-24 12:12:00,62.9,47.0,29.98,SSE,160,0.0,0.0,56,0.00,,,0.00,VWS V14.01,2013-09-24 16:12:00,
2013-09-24 12:17:00,62.9,47.0,29.98,ENE,58,0.0,5.0,56,0.00,,,0.00,VWS V14.01,2013-09-24 16:17:00,
2013-09-24 12:22:00,63.2,48.2,29.98,NE,39,2.0,3.0,58,0.00,,,0.00,VWS V14.01,2013-09-24 16:22:00,
2013-09-24 12:27:00,63.2,47.3,29.98,North,5,1.0,7.0,56,0.00,,,0.00,VWS V14.01,2013-09-24 16:27:00,
2013-09-24 12:32:00,63.3,47.3,29.97,North,355,1.0,1.0,56,0.00,,,0.00,VWS V14.01,2013-09-24 16:32:00,
2013-09-24 12:37:00,63.2,46.8,29.97,North,5,0.0,7.0,55,0.00,,,0.00,VWS V14.01,2013-09-24 16:37:00,
2013-09-24 12:42:00,63.2,46.8,29.97,WNW,293,0.0,0.0,55,0.00,,,0.00,VWS V14.01,2013-09-24 16:42:00,
2013-09-24 12:47:00,63.5,48.0,29.97,North,5,0.0,3.0,57,0.00,,,0.00,VWS V14.01,2013-09-24 16:47:00,
2013-09-24 12:52:00,63.7,46.3,29.97,NNW,347,1.0,1.0,53,0.00,,,0.00,VWS V14.01,2013-09-24 16:52:00,
2013-09-24 12:57:00,63.7,46.8,29.97,NNE,26,0.0,3.0,54,0.00,,,0.00,VWS V14.01,2013-09-24 16:57:00,
2013-09-24 13:02:00,63.9,47.0,29.96,ESE,120,4.0,4.0,54,0.00,,,0.00,VWS V14.01,2013-09-24 17:02:00,
2013-09-24 13:07:00,64.1,46.6,29.96,WNW,296,0.0,6.0,53,0.00,,,0.00,VWS V14.01,2013-09-24 17:07:00,
2013-09-24 13:12:00,64.2,46.7,29.96,NE,42,0.0,1.0,53,0.00,,,0.00,VWS V14.01,2013-09-24 17:12:00,
2013-09-24 13:17:00,64.3,46.8,29.95,ENE,70,1.0,8.0,53,0.00,,,0.00,VWS V14.01,2013-09-24 17:17:00,
2013-09-24 13:22:00,64.4,46.9,29.95,WSW,258,0.0,0.0,53,0.00,,,0.00,VWS V14.01,2013-09-24 17:22:00,
2013-09-24 13:27:00,64.5,46.5,29.95,NNW,344,0.0,2.0,52,0.00,,,0.00,VWS V14.01,2013-09-24 17:27:00,
2013-09-24 13:32:00,64.7,47.2,29.95,NE,43,0.0,2.0,53,0.00,,,0.00,VWS V14.01,2013-09-24 17:32:00,
2013-09-24 13:37:00,64.9,46.4,29.95,East,95,3.0,6.0,51,0.00,,,0.00,VWS V14.01,2013-09-24 17:37:00,
2013-09-24 13:42:00,65.0,46.5,29.95,ESE,121,1.0,1.0,51,0.00,,,0.00,VWS V14.01,2013-09-24 17:42:00,
2013-09-24 13:47:00,65.2,46.6,29.94,North,355,0.0,5.0,51,0.00,,,0.00,VWS V14.01,2013-09-24 17:47:00,
2013-09-24 13:52:00,65.3,46.2,29.94,SW,236,0.0,0.0,50,0.00,,,0.00,VWS V14.01,2013-09-24 17:52:00,
2013-09-24 13:57:00,65.4,46.8,29.94,ESE,123,2.0,4.0,51,0.00,,,0.00,VWS V14.01,2013-09-24 17:57:00,
2013-09-24 14:02:00,65.6,47.0,29.93,NW,304,0.0,0.0,51,0.00,,,0.00,VWS V14.01,2013-09-24 18:02:00,
2013-09-24 14:07:00,65.8,48.2,29.93,WNW,301,2.0,3.0,53,0.00,,,0.00,VWS V14.01,2013-09-24 18:07:00,
2013-09-24 14:12:00,65.9,46.2,29.93,NNE,26,1.0,3.0,49,0.00,,,0.00,VWS V14.01,2013-09-24 18:12:00,
2013-09-24 14:17:00,66.0,45.8,29.93,WNW,282,0.0,6.0,48,0.00,,,0.00,VWS V14.01,2013-09-24 18:17:00,
2013-09-24 14:22:00,66.1,45.9,29.93,ENE,72,0.0,0.0,48,0.00,,,0.00,VWS V14.01,2013-09-24 18:22:00,
2013-09-24 14:27:00,66.3,46.0,29.93,SE,145,0.0,5.0,48,0.00,,,0.00,VWS V14.01,2013-09-24 18:27:00,
2013-09-24 14:32:00,66.4,46.1,29.93,NNW,327,1.0,4.0,48,0.00,,,0.00,VWS V14.01,2013-09-24 18:32:00,
2013-09-24 14:37:00,66.5,47.3,29.93,WSW,257,1.0,6.0,50,0.00,,,0.00,VWS V14.01,2013-09-24 18:37:00,
2013-09-24 14:41:00,66.6,46.3,29.93,WNW,283,5.0,6.0,48,0.00,,,0.00,VWS V14.01,2013-09-24 18:41:00,
2013-09-24 14:46:00,66.7,47.0,29.92,ENE,67,0.0,6.0,49,0.00,,,0.00,VWS V14.01,2013-09-24 18:46:00,
2013-09-24 14:51:00,66.8,47.0,29.92,West,266,0.0,0.0,49,0.00,,,0.00,VWS V14.01,2013-09-24 18:51:00,
2013-09-24 14:56:00,66.9,47.7,29.92,WSW,254,2.0,4.0,50,0.00,,,0.00,VWS V14.01,2013-09-24 18:56:00,
2013-09-24 15:01:00,67.0,47.2,29.92,WNW,286,0.0,3.0,49,0.00,,,0.00,VWS V14.01,2013-09-24 19:01:00,
2013-09-24 15:06:00,67.1,46.8,29.92,WNW,285,0.0,9.0,48,0.00,,,0.00,VWS V14.01,2013-09-24 19:06:00,
2013-09-24 15:11:00,67.2,46.9,29.92,West,261,0.0,1.0,48,0.00,,,0.00,VWS V14.01,2013-09-24 19:11:00,
2013-09-24 15:16:00,67.3,48.0,29.91,SSE,168,1.0,6.0,50,0.00,,,0.00,VWS V14.01,2013-09-24 19:16:00,
2013-09-24 15:21:00,67.4,47.6,29.91,East,101,5.0,5.0,49,0.00,,,0.00,VWS V14.01,2013-09-24 19:21:00,
2013-09-24 15:26:00,67.5,47.7,29.91,NE,54,2.0,5.0,49,0.00,,,0.00,VWS V14.01,2013-09-24 19:26:00,
2013-09-24 15:31:00,67.6,48.3,29.91,SE,146,0.0,1.0,50,0.00,,,0.00,VWS V14.01,2013-09-24 19:31:00,
2013-09-24 15:36:00,67.7,48.9,29.91,SSW,213,0.0,6.0,51,0.00,,,0.00,VWS V14.01,2013-09-24 19:36:00,
2013-09-24 15:41:00,67.7,48.9,29.91,NNE,19,3.0,4.0,51,0.00,,,0.00,VWS V14.01,2013-09-24 19:41:00,
2013-09-24 15:46:00,67.7,47.3,29.90,North,10,0.0,5.0,48,0.00,,,0.00,VWS V14.01,2013-09-24 19:46:00,
2013-09-24 15:51:00,67.8,46.9,29.90,NNW,342,2.0,2.0,47,0.00,,,0.00,VWS V14.01,2013-09-24 19:51:00,
2013-09-24 15:56:00,67.8,47.4,29.90,North,5,4.0,14.0,48,0.00,,,0.00,VWS V14.01,2013-09-24 19:56:00,
2013-09-24 16:01:00,67.8,48.0,29.90,West,263,0.0,2.0,49,0.00,,,0.00,VWS V14.01,2013-09-24 20:01:00,
2013-09-24 16:06:00,67.8,46.9,29.90,ESE,116,3.0,7.0,47,0.00,,,0.00,VWS V14.01,2013-09-24 20:06:00,
2013-09-24 16:11:00,67.8,46.3,29.90,NNE,29,0.0,0.0,46,0.00,,,0.00,VWS V14.01,2013-09-24 20:11:00,
2013-09-24 16:16:00,67.8,46.9,29.90,NE,44,2.0,8.0,47,0.00,,,0.00,VWS V14.01,2013-09-24 20:16:00,
2013-09-24 16:21:00,67.8,46.9,29.90,NW,318,11.0,11.0,47,0.00,,,0.00,VWS V14.01,2013-09-24 20:21:00,
2013-09-24 16:26:00,67.8,47.4,29.90,WSW,253,1.0,11.0,48,0.00,,,0.00,VWS V14.01,2013-09-24 20:26:00,
2013-09-24 16:31:00,67.8,46.9,29.90,WSW,241,1.0,1.0,47,0.00,,,0.00,VWS V14.01,2013-09-24 20:31:00,
2013-09-24 16:36:00,67.8,46.3,29.90,NE,55,1.0,8.0,46,0.00,,,0.00,VWS V14.01,2013-09-24 20:36:00,
2013-09-24 16:41:00,67.8,46.9,29.90,ENE,64,2.0,3.0,47,0.00,,,0.00,VWS V14.01,2013-09-24 20:41:00,
2013-09-24 16:47:00,67.8,46.9,29.90,WNW,301,3.0,8.0,47,0.00,,,0.00,VWS V14.01,2013-09-24 20:47:00,
2013-09-24 16:52:00,67.7,46.2,29.90,East,101,0.0,3.0,46,0.00,,,0.00,VWS V14.01,2013-09-24 20:52:00,
2013-09-24 16:57:00,67.8,46.9,29.90,ESE,123,2.0,5.0,47,0.00,,,0.00,VWS V14.01,2013-09-24 20:57:00,
2013-09-24 17:02:00,67.9,47.5,29.90,ENE,71,2.0,2.0,48,0.00,,,0.00,VWS V14.01,2013-09-24 21:02:00,
2013-09-24 17:07:00,67.9,46.4,29.90,South,183,1.0,3.0,46,0.00,,,0.00,VWS V14.01,2013-09-24 21:07:00,
2013-09-24 17:12:00,68.1,46.0,29.90,ESE,104,0.0,4.0,45,0.00,,,0.00,VWS V14.01,2013-09-24 21:12:00,
2013-09-24 17:17:00,68.2,45.5,29.90,NW,323,6.0,6.0,44,0.00,,,0.00,VWS V14.01,2013-09-24 21:17:00,
2013-09-24 17:22:00,68.2,46.1,29.90,North,360,0.0,4.0,45,0.00,,,0.00,VWS V14.01,2013-09-24 21:22:00,
2013-09-24 17:27:00,68.1,46.6,29.90,NE,51,1.0,4.0,46,0.00,,,0.00,VWS V14.01,2013-09-24 21:27:00,
2013-09-24 17:32:00,68.0,46.5,29.90,East,84,1.0,3.0,46,0.00,,,0.00,VWS V14.01,2013-09-24 21:32:00,
2013-09-24 17:37:00,67.9,47.0,29.90,ENE,57,1.0,3.0,47,0.00,,,0.00,VWS V14.01,2013-09-24 21:37:00,
2013-09-24 17:42:00,67.8,47.4,29.90,NW,304,0.0,0.0,48,0.00,,,0.00,VWS V14.01,2013-09-24 21:42:00,
2013-09-24 17:47:00,67.4,47.0,29.90,ENE,61,0.0,5.0,48,0.00,,,0.00,VWS V14.01,2013-09-24 21:47:00,
2013-09-24 17:52:00,67.0,46.1,29.90,NW,313,0.0,3.0,47,0.00,,,0.00,VWS V14.01,2013-09-24 21:52:00,
2013-09-24 17:57:00,66.7,45.8,29.90,WNW,290,2.0,3.0,47,0.00,,,0.00,VWS V14.01,2013-09-24 21:57:00,
2013-09-24 18:02:00,66.4,46.1,29.90,NNW,329,0.0,0.0,48,0.00,,,0.00,VWS V14.01,2013-09-24 22:02:00,
2013-09-24 18:07:00,66.1,46.4,29.90,WNW,296,1.0,4.0,49,0.00,,,0.00,VWS V14.01,2013-09-24 22:07:00,
2013-09-24 18:12:00,65.8,47.7,29.90,WSW,246,1.0,2.0,52,0.00,,,0.00,VWS V14.01,2013-09-24 22:12:00,
2013-09-24 18:17:00,65.4,46.8,29.91,NW,305,0.0,4.0,51,0.00,,,0.00,VWS V14.01,2013-09-24 22:17:00,
2013-09-24 18:22:00,65.2,47.2,29.91,North,5,5.0,5.0,52,0.00,,,0.00,VWS V14.01,2013-09-24 22:22:00,
2013-09-24 18:27:00,64.8,46.8,29.91,North,5,0.0,5.0,52,0.00,,,0.00,VWS V14.01,2013-09-24 22:27:00,
2013-09-24 18:32:00,64.6,48.1,29.91,North,5,0.0,0.0,55,0.00,,,0.00,VWS V14.01,2013-09-24 22:32:00,
2013-09-24 18:37:00,64.4,47.9,29.91,North,11,0.0,2.0,55,0.00,,,0.00,VWS V14.01,2013-09-24 22:37:00,
2013-09-24 18:42:00,64.1,47.6,29.91,North,9,0.0,0.0,55,0.00,,,0.00,VWS V14.01,2013-09-24 22:42:00,
2013-09-24 18:47:00,63.8,48.3,29.91,North,9,0.0,0.0,57,0.00,,,0.00,VWS V14.01,2013-09-24 22:47:00,
2013-09-24 18:52:00,63.6,48.6,29.91,North,9,0.0,0.0,58,0.00,,,0.00,VWS V14.01,2013-09-24 22:52:00,
2013-09-24 18:57:00,63.2,48.7,29.91,North,9,0.0,0.0,59,0.00,,,0.00,VWS V14.01,2013-09-24 22:57:00,
2013-09-24 19:02:00,62.8,48.3,29.91,North,10,0.0,0.0,59,0.00,,,0.00,VWS V14.01,2013-09-24 23:02:00,
2013-09-24 19:07:00,62.3,48.2,29.91,NW,313,0.0,2.0,60,0.00,,,0.00,VWS V14.01,2013-09-24 23:07:00,
2013-09-24 19:12:00,61.8,48.7,29.91,NW,313,0.0,0.0,62,0.00,,,0.00,VWS V14.01,2013-09-24 23:12:00,
2013-09-24 19:17:00,61.5,48.4,29.91,NW,313,0.0,0.0,62,0.00,,,0.00,VWS V14.01,2013-09-24 23:17:00,
2013-09-24 19:22:00,61.2,48.5,29.91,NW,313,0.0,0.0,63,0.00,,,0.00,VWS V14.01,2013-09-24 23:22:00,
2013-09-24 19:27:00,60.9,48.7,29.91,NW,313,0.0,0.0,64,0.00,,,0.00,VWS V14.01,2013-09-24 23:27:00,
2013-09-24 19:32:00,60.6,48.4,29.92,NW,313,0.0,0.0,64,0.00,,,0.00,VWS V14.01,2013-09-24 23:32:00,
2013-09-24 19:37:00,60.2,48.4,29.92,NW,313,0.0,0.0,65,0.00,,,0.00,VWS V14.01,2013-09-24 23:37:00,
2013-09-24 19:42:00,59.8,48.4,29.92,NW,313,0.0,0.0,66,0.00,,,0.00,VWS V14.01,2013-09-24 23:42:00,
2013-09-24 19:47:00,59.4,48.5,29.92,NW,313,0.0,0.0,67,0.00,,,0.00,VWS V14.01,2013-09-24 23:47:00,
2013-09-24 19:52:00,59.0,48.5,29.92,NW,313,0.0,0.0,68,0.00,,,0.00,VWS V14.01,2013-09-24 23:52:00,
2013-09-24 19:57:00,58.7,49.0,29.92,NW,313,0.0,0.0,70,0.00,,,0.00,VWS V14.01,2013-09-24 23:57:00,
2013-09-24 20:02:00,58.4,49.0,29.92,NW,313,0.0,0.0,71,0.00,,,0.00,VWS V14.01,2013-09-25 00:02:00,
2013-09-24 20:07:00,58.0,48.7,29.92,NW,313,0.0,0.0,71,0.00,,,0.00,VWS V14.01,2013-09-25 00:07:00,
2013-09-24 20:12:00,57.7,48.8,29.92,NW,313,0.0,0.0,72,0.00,,,0.00,VWS V14.01,2013-09-25 00:12:00,
2013-09-24 20:17:00,57.4,48.8,29.92,NW,313,0.0,0.0,73,0.00,,,0.00,VWS V14.01,2013-09-25 00:17:00,
2013-09-24 20:22:00,57.1,48.5,29.92,NW,313,0.0,0.0,73,0.00,,,0.00,VWS V14.01,2013-09-25 00:22:00,
2013-09-24 20:27:00,56.8,47.9,29.92,WSW,254,0.0,2.0,72,0.00,,,0.00,VWS V14.01,2013-09-25 00:27:00,
2013-09-24 20:32:00,56.6,47.7,29.92,WSW,254,0.0,0.0,72,0.00,,,0.00,VWS V14.01,2013-09-25 00:32:00,
2013-09-24 20:37:00,56.4,47.5,29.92,WSW,254,0.0,0.0,72,0.00,,,0.00,VWS V14.01,2013-09-25 00:37:00,
2013-09-24 20:42:00,56.4,47.5,29.92,WSW,254,0.0,0.0,72,0.00,,,0.00,VWS V14.01,2013-09-25 00:42:00,
2013-09-24 20:47:00,56.3,47.8,29.92,WSW,254,0.0,0.0,73,0.00,,,0.00,VWS V14.01,2013-09-25 00:47:00,
2013-09-24 20:52:00,56.2,47.7,29.92,WSW,254,0.0,0.0,73,0.00,,,0.00,VWS V14.01,2013-09-25 00:52:00,
2013-09-24 20:57:00,56.1,47.9,29.92,WSW,254,0.0,0.0,74,0.00,,,0.00,VWS V14.01,2013-09-25 00:57:00,
2013-09-24 21:02:00,55.9,47.7,29.93,WSW,254,0.0,0.0,74,0.00,,,0.00,VWS V14.01,2013-09-25 01:02:00,
2013-09-24 21:07:00,55.8,47.7,29.93,WSW,254,0.0,0.0,74,0.00,,,0.00,VWS V14.01,2013-09-25 01:07:00,
2013-09-24 21:12:00,55.6,47.8,29.93,WSW,254,0.0,0.0,75,0.00,,,0.00,VWS V14.01,2013-09-25 01:12:00,
2013-09-24 21:17:00,55.3,47.5,29.93,WSW,254,0.0,0.0,75,0.00,,,0.00,VWS V14.01,2013-09-25 01:17:00,
2013-09-24 21:22:00,55.0,47.6,29.93,WSW,254,0.0,0.0,76,0.00,,,0.00,VWS V14.01,2013-09-25 01:22:00,
2013-09-24 21:27:00,54.6,47.2,29.93,WSW,254,0.0,0.0,76,0.00,,,0.00,VWS V14.01,2013-09-25 01:27:00,
2013-09-24 21:32:00,54.3,47.2,29.93,WSW,254,0.0,0.0,77,0.00,,,0.00,VWS V14.01,2013-09-25 01:32:00,
2013-09-24 21:37:00,54.0,47.3,29.93,WSW,254,0.0,0.0,78,0.00,,,0.00,VWS V14.01,2013-09-25 01:37:00,
2013-09-24 21:42:00,53.8,47.1,29.93,WSW,254,0.0,0.0,78,0.00,,,0.00,VWS V14.01,2013-09-25 01:42:00,
2013-09-24 21:47:00,53.4,47.1,29.94,WSW,254,0.0,0.0,79,0.00,,,0.00,VWS V14.01,2013-09-25 01:47:00,
2013-09-24 21:52:00,53.1,47.1,29.94,WSW,254,0.0,0.0,80,0.00,,,0.00,VWS V14.01,2013-09-25 01:52:00,
2013-09-24 21:57:00,52.9,46.9,29.94,WSW,254,0.0,0.0,80,0.00,,,0.00,VWS V14.01,2013-09-25 01:57:00,
2013-09-24 22:02:00,52.7,47.0,29.94,WSW,254,0.0,0.0,81,0.00,,,0.00,VWS V14.01,2013-09-25 02:02:00,
2013-09-24 22:07:00,52.6,46.9,29.94,WSW,254,0.0,0.0,81,0.00,,,0.00,VWS V14.01,2013-09-25 02:07:00,
2013-09-24 22:12:00,52.5,47.2,29.94,WSW,254,0.0,0.0,82,0.00,,,0.00,VWS V14.01,2013-09-25 02:12:00,
2013-09-24 22:17:00,52.4,47.1,29.94,WSW,254,0.0,0.0,82,0.00,,,0.00,VWS V14.01,2013-09-25 02:17:00,
2013-09-24 22:22:00,52.4,47.1,29.94,WSW,254,0.0,0.0,82,0.00,,,0.00,VWS V14.01,2013-09-25 02:22:00,
2013-09-24 22:27:00,52.3,47.0,29.94,WSW,254,0.0,2.0,82,0.00,,,0.00,VWS V14.01,2013-09-25 02:27:00,
2013-09-24 22:32:00,52.5,47.2,29.95,NNW,344,0.0,0.0,82,0.00,,,0.00,VWS V14.01,2013-09-25 02:32:00,
2013-09-24 22:37:00,52.6,46.9,29.95,NNW,335,0.0,1.0,81,0.00,,,0.00,VWS V14.01,2013-09-25 02:37:00,
2013-09-24 22:42:00,52.7,47.0,29.95,NNW,338,0.0,1.0,81,0.00,,,0.00,VWS V14.01,2013-09-25 02:42:00,
2013-09-24 22:47:00,52.7,47.0,29.95,NNW,338,0.0,1.0,81,0.00,,,0.00,VWS V14.01,2013-09-25 02:47:00,
2013-09-24 22:52:00,52.8,46.8,29.95,NNE,32,0.0,0.0,80,0.00,,,0.00,VWS V14.01,2013-09-25 02:52:00,
2013-09-24 22:57:00,52.8,46.5,29.95,West,275,0.0,4.0,79,0.00,,,0.00,VWS V14.01,2013-09-25 02:57:00,
2013-09-24 23:02:00,52.9,46.6,29.95,West,279,0.0,0.0,79,0.00,,,0.00,VWS V14.01,2013-09-25 03:02:00,
2013-09-24 23:07:00,53.1,46.8,29.95,SW,233,0.0,3.0,79,0.00,,,0.00,VWS V14.01,2013-09-25 03:07:00,
2013-09-24 23:12:00,53.2,46.5,29.95,East,89,2.0,2.0,78,0.00,,,0.00,VWS V14.01,2013-09-25 03:12:00,
2013-09-24 23:17:00,53.4,46.4,29.95,East,99,0.0,2.0,77,0.00,,,0.00,VWS V14.01,2013-09-25 03:17:00,
2013-09-24 23:22:00,53.5,46.1,29.95,SSW,210,0.0,2.0,76,0.00,,,0.00,VWS V14.01,2013-09-25 03:22:00,
2013-09-24 23:27:00,53.5,46.5,29.95,SSW,210,0.0,2.0,77,0.00,,,0.00,VWS V14.01,2013-09-25 03:27:00,
2013-09-24 23:32:00,53.5,46.5,29.95,SSW,209,0.0,0.0,77,0.00,,,0.00,VWS V14.01,2013-09-25 03:32:00,
2013-09-24 23:37:00,53.5,46.5,29.95,ENE,59,0.0,3.0,77,0.00,,,0.00,VWS V14.01,2013-09-25 03:37:00,
2013-09-24 23:42:00,53.4,45.7,29.95,ENE,64,4.0,4.0,75,0.00,,,0.00,VWS V14.01,2013-09-25 03:42:00,
2013-09-24 23:47:00,53.6,45.5,29.95,ENE,63,0.0,4.0,74,0.00,,,0.00,VWS V14.01,2013-09-25 03:47:00,
2013-09-24 23:52:00,53.7,45.3,29.95,NW,313,1.0,2.0,73,0.00,,,0.00,VWS V14.01,2013-09-25 03:52:00,
2013-09-24 23:57:00,53.7,44.9,29.95,NNW,338,0.0,2.0,72,0.00,,,0.00,VWS V14.01,2013-09-25 03:57:00,